Regional Weather Roundup
Issued by NWS Sioux Falls, SD

Home | Current Version | Previous Version | Text Only | Print | Product List | Glossary On
Versions: 1 2 3 4 5 6 7 8 9 10 11 12 13 14 15 16 17 18 19 20 21 22 23 24 25 26 27 28 29 30 31 32 33 34 35 36 37 38 39 40 41 42 43 44 45 46 47 48 49 50
000
ASUS43 KFSD 271910
RWRFSD

WEATHER ROUNDUP FOR SE SOUTH DAKOTA/SW MINNESOTA/NW IOWA
NATIONAL WEATHER SERVICE SIOUX FALLS SD
200 PM CDT FRI MAY 27 2016

NOTE: "FAIR" INDICATES FEW OR NO CLOUDS BELOW 12,000 FEET WITH NO
SIGNIFICANT WEATHER AND OR OBSTRUCTIONS TO VISIBILITY.


SDZ038>040-050-052>070-272000-
SOUTHEAST SOUTH DAKOTA

CITY           SKY/WX    TMP DP  RH WIND       PRES   REMARKS
BROOKINGS      CLOUDY    66  58  75 NW9       29.78S
CHAMBERLAIN    CLOUDY    63  60  88 N14       29.80R
HURON          CLOUDY    63  59  87 NW9       29.79S
MADISON        MOCLDY    64  64 100 W5        29.79R
MITCHELL       CLOUDY    65  60  84 NW10      29.78F
SIOUX FALLS    PTSUNNY   72  57  59 CALM      29.76S
WINNER         MOCLDY    67  53  61 N12       29.81R
YANKTON        MOSUNNY   70  57  64 CALM      29.75F
$$

MNZ071-072-080-081-089-090-097-098-272000-
SOUTHWEST MINNESOTA

CITY           SKY/WX    TMP DP  RH WIND       PRES   REMARKS
FAIRMONT       MOSUNNY   70  59  68 S9        29.77S
JACKSON        CLOUDY    70  55  60 S6        29.78R
LUVERNE        MOSUNNY   70  52  52 E5        29.77R
MARSHALL       PTSUNNY   73  56  54 W10       29.76S
MONTEVIDEO     CLOUDY    70  57  64 NW8       29.78R
PIPESTONE      CLOUDY    72  55  56 N8        29.77S
REDWOOD FALLS  CLOUDY    72  56  57 E5        29.75S
TRACY          PTSUNNY   74  55  51 SW3       29.76F
WINDOM         MOSUNNY   72  57  60 CALM      29.77R
WORTHINGTON    CLOUDY    69  57  65 SE7       29.78S
$$

IAZ001>003-012>014-020>022-031-032-NEZ013-014-SDZ071-272000-
NORTHWEST IOWA

CITY           SKY/WX    TMP DP  RH WIND       PRES   REMARKS
CHEROKEE       MOSUNNY   73  60  62 S3        29.77R
DENISON          N/A     75  61  60 S9        29.74
ESTHERVILLE    PTSUNNY   70  60  70 S9        29.76F
LE MARS        PTSUNNY   73  61  64 SW10      29.78S
ORANGE CITY    PTSUNNY   72  59  64 S6        29.78R
SHELDON        PTSUNNY   73  59  60 S9G17     29.76R
SIOUX CITY     PTSUNNY   74  60  61 CALM      29.76S
SPENCER        PTSUNNY   72  58  61 SE5       29.76S
STORM LAKE       N/A     73  57  56 CALM      29.77S
$$

ABBREVIATIONS USED IN REMARKS
   TC - TEMPERATURE IN CELSIUS
  WCI - WIND CHILL INDEX
   HX - HEAT INDEX
  VSB - VISIBILITY




USA.gov is the U.S. government's official web portal to all federal, state and local government web resources and services.